格洛纳斯GVM-6 COSMOS 1652 [GLONASS]

导读 | 豆包AI

COSMOS 1652是苏联(CIS)于1985年5月17日发射的第一代GLONASS导航卫星,属于格洛纳斯全球卫星导航系统的组网卫星。该卫星运行在平均高度约19100千米、倾角64.8°的中地球轨道,周期11小时15分,采用三轴稳定设计,携带精密铯原子钟,设计寿命5年,为系统提供全球全天候定位、测速与授时服务支撑,是苏联早期推进GLONASS星座建设的重要组成部分。

基本信息
目录编号:
15699
目录名称:
COSMOS 1652 (GLONASS)
国际标识:
1985-037C
轨道中心:
EARTH
卫星名称:
格洛纳斯GVM-6
卫星全名:
格洛纳斯GVM-6 COSMOS 1652 [GLONASS]
卫星状态:
在轨 (已飞行14911 天)
发射日期:
1985-05-17 UTC
国别 :
俄罗斯(独联体) (CIS)
星等 :
--
轨道信息
数据来源 国际轨道数据
星历时间: 2026-03-06T20:37:09+0800
轨道信息已过期7天
半长轴: 25510.786km
偏心率: 0.0018396
轨道倾角: 64.814°
近地点辐角 24.656°
升交点赤经 76.645°
平近点角 153.936°
近地点: 19085.719km
远地点: 19179.579km
周期: 675.842分钟
每日圈数: 2.130674
详细信息
平衡模式:
三轴稳定
覆盖范围:
全球
运营商:
列舍特涅夫卫星信息系统
运营商所在国:
俄罗斯
制造商(研发单位):
列舍特涅夫卫星信息系统
制造商所在国:
俄罗斯
使用方式:
暂无
卫星简介
格洛纳斯(GLONASS )是苏联/俄罗斯研制卫星导航系统。标准配置为24颗卫星,其中18颗卫星就能保证该系统为俄罗斯境内用户提供全部服务。该卫星已退役。
2D轨道图
3D轨道图
轨道高度分析图
轨道倾角分析图
轨道综合分析图
查看轨道综合分析图